GEFSMA_500_meanwind_072.txt.gz
Wind_Speed
33 31 28 27 27 27 26 24 23 22 20 19 18 16 15 14 13 12 11 11 11 10 10 10 10 10 10 10 10 10 9 8 8 8 7 7 6 5 5 4 3 3 2
38 35 33 31 30 29 28 27 26 25 23 22 21 19 18 16 16 15 13 12 12 12 12 11 11 11 11 10 10 10 9 9 8 7 7 7 6 6 5 4 3 3 3
42 40 38 35 33 33 32 31 29 27 26 25 24 22 21 19 18 17 16 15 14 14 14 13 13 12 12 11 11 11 10 9 9 8 8 7 7 6 5 4 4 4 4
44 43 42 40 38 36 33 32 32 30 28 27 26 25 24 22 21 21 19 18 16 16 16 15 15 14 14 13 12 12 11 10 9 9 8 8 7 6 5 5 5 5 6
44 44 44 44 43 40 38 34 34 33 31 29 29 27 26 25 24 24 23 21 20 19 18 17 17 16 16 15 14 13 12 11 10 10 9 9 8 7 7 6 6 7 7
41 43 44 45 45 44 42 39 37 36 34 32 31 30 29 28 27 27 25 24 23 22 20 19 19 18 17 17 16 15 14 13 12 11 10 10 9 9 8 8 8 8 9
38 41 43 45 46 45 45 43 41 38 37 35 33 31 31 31 30 30 29 27 26 25 23 22 21 20 20 19 18 17 16 15 14 13 12 11 11 10 10 10 10 10 11
34 37 40 42 44 45 45 45 44 41 40 38 36 34 33 32 32 32 32 30 30 28 27 26 24 23 22 21 20 19 18 17 16 15 15 14 13 12 12 12 12 12 13
29 33 36 39 41 43 44 44 44 44 42 40 38 36 35 33 33 34 34 33 32 31 29 29 27 25 24 23 23 21 20 19 18 17 17 16 15 14 14 14 14 14 14
25 28 31 34 37 40 42 44 44 44 44 42 40 37 36 36 34 34 35 36 36 33 31 31 30 29 27 26 25 23 23 21 20 19 18 18 17 16 16 16 16 16 16
21 24 28 31 34 37 39 41 43 44 44 43 42 40 39 38 37 36 35 36 38 37 36 34 33 31 30 29 28 26 25 23 22 22 21 20 19 19 18 18 18 18 18
18 21 24 27 31 34 37 39 41 43 43 44 43 42 40 39 38 38 37 36 38 39 38 37 35 34 33 32 31 29 28 26 25 24 23 22 21 21 21 20 20 19 19
16 19 21 24 27 30 34 36 38 40 43 44 44 44 42 40 39 39 39 37 37 39 39 38 37 36 35 34 33 32 30 28 26 25 24 24 23 23 22 21 21 20 20
15 17 20 22 25 28 31 34 36 38 41 43 44 45 44 42 43 41 40 40 40 38 38 38 39 39 38 36 34 33 32 30 29 27 26 25 24 24 23 22 22 22 21
15 16 18 20 23 26 29 32 35 37 39 42 44 45 46 44 44 42 41 41 42 41 39 37 38 39 39 38 37 36 34 32 31 30 28 27 26 25 24 23 23 23 23
15 15 16 17 19 22 26 28 32 35 37 40 42 43 46 46 45 44 44 42 43 42 40 39 38 39 39 39 38 37 35 34 34 32 30 29 28 27 26 25 25 24 24
16 15 15 15 16 19 21 25 29 31 34 37 40 41 43 45 46 45 45 43 42 42 43 42 40 38 39 39 39 38 36 35 35 34 32 31 29 28 28 27 26 26 26
18 17 16 15 14 15 18 20 24 28 32 35 37 40 42 43 44 45 45 45 44 43 43 43 42 40 38 39 40 39 38 37 36 35 34 32 31 30 30 30 29 28 27
20 19 17 15 14 14 15 17 20 23 27 31 34 37 39 42 42 43 44 45 45 43 43 43 43 42 41 40 40 39 38 37 36 35 35 34 33 32 32 31 30 29 28
21 20 18 15 14 13 13 15 17 20 23 26 30 33 36 39 40 42 44 45 46 45 44 44 44 44 42 41 41 40 39 38 37 37 36 35 35 35 35 34 32 30 29
23 21 18 16 14 12 12 13 16 19 21 24 27 30 33 36 38 41 42 44 45 46 44 44 44 44 43 42 41 40 40 40 39 38 38 38 38 37 36 35 33 31 29
24 23 20 17 15 12 11 11 13 16 19 21 24 27 30 32 35 37 40 42 43 44 45 44 43 43 43 43 42 40 40 41 40 39 39 39 38 36 35 35 33 31 30
25 24 22 19 16 13 11 10 11 12 15 17 20 24 27 29 32 34 36 39 41 42 42 41 41 41 41 41 43 43 41 41 40 39 39 38 37 36 34 34 33 31 29
26 25 23 21 18 15 13 10 8 9 10 13 16 20 23 26 28 31 34 35 37 39 39 39 39 39 40 40 41 42 41 40 39 39 38 37 36 35 34 33 31 28 27
27 25 24 22 19 16 14 12 10 8 9 10 13 16 19 22 25 28 31 34 35 36 37 38 38 38 40 39 38 37 37 37 37 37 36 35 35 34 33 31 28 27 26
28 26 25 23 21 18 15 13 11 9 8 9 10 13 15 19 22 24 28 31 32 33 34 35 36 35 36 37 36 35 34 35 34 35 35 34 33 32 29 28 27 26 25

GEFSMA_500_meanwind_078.txt.gz
Wind_Speed
35 34 33 32 31 30 31 30 29 27 24 23 21 19 17 16 15 14 13 12 12 11 11 11 11 11 11 11 11 11 11 10 9 8 8 8 7 7 6 5 4 3 2
33 33 33 33 32 31 31 30 29 28 27 26 24 22 20 18 17 16 15 14 13 13 12 12 12 12 12 12 11 11 11 11 10 9 9 8 7 7 6 5 4 3 2
33 33 34 33 33 33 32 30 29 28 28 27 26 24 21 21 19 18 17 16 15 15 14 14 13 13 13 13 12 12 11 11 11 10 10 9 8 7 6 5 4 4 3
31 32 33 34 34 33 33 33 32 29 28 28 26 26 23 22 22 20 20 19 18 17 16 16 15 14 14 14 13 12 12 12 11 11 10 9 9 8 7 6 5 5 4
27 29 30 32 34 35 33 34 33 31 30 30 28 27 25 25 24 22 22 21 20 19 19 18 18 17 16 15 15 14 13 12 12 11 10 10 10 9 8 7 6 6 6
24 26 28 30 32 34 34 34 34 33 31 31 30 29 28 26 26 25 24 24 23 22 21 21 20 19 18 17 17 16 15 14 13 12 12 11 11 10 9 8 8 7 7
21 23 25 28 29 31 33 34 35 35 33 32 32 32 31 29 28 28 27 26 26 25 24 23 22 21 20 19 19 18 17 16 15 14 13 13 12 12 11 10 9 9 9
19 20 22 24 27 29 31 32 34 35 35 35 33 33 33 31 31 30 29 29 28 28 27 26 24 23 22 22 21 21 20 19 17 16 15 15 14 13 12 11 11 11 10
17 18 20 22 24 26 29 31 32 35 36 35 35 35 34 33 34 32 33 32 32 30 29 29 27 26 25 24 23 23 22 21 20 19 17 17 16 15 14 14 13 13 13
15 17 18 19 21 24 26 29 31 33 35 36 36 36 36 34 35 34 34 35 35 34 32 31 30 29 28 27 26 25 24 23 22 21 20 19 18 17 16 16 15 15 15
14 15 16 18 20 22 24 27 29 32 34 36 36 37 37 36 36 36 35 36 36 36 35 33 32 33 31 29 28 28 27 26 25 24 23 21 20 19 19 18 17 17 17
14 14 15 16 18 20 22 25 28 31 32 34 35 36 36 36 37 37 36 35 36 37 37 36 34 35 34 32 31 30 29 28 27 26 25 24 22 22 21 20 19 19 19
15 15 15 16 17 19 20 23 25 28 31 32 34 36 37 38 38 38 38 38 37 37 37 36 35 35 36 35 33 33 32 30 29 28 27 26 25 23 23 22 21 21 21
16 15 15 16 17 18 20 21 23 25 28 30 32 34 36 37 38 38 38 38 38 38 38 36 36 36 36 37 37 36 34 33 32 31 30 28 27 26 25 24 23 23 23
18 17 16 16 17 18 19 21 22 24 27 29 31 33 35 36 38 38 38 38 38 38 38 36 37 37 37 38 38 38 37 35 34 34 32 31 30 28 27 26 25 25 25
20 19 18 17 17 17 17 18 20 22 25 27 29 31 33 35 37 38 38 39 39 38 38 38 37 37 38 39 39 40 39 37 36 35 34 33 32 31 30 29 28 27 26
22 21 19 17 16 16 16 16 18 20 22 25 27 29 31 33 36 38 39 39 40 40 39 39 40 39 38 38 39 40 40 39 37 36 35 34 34 33 32 31 30 29 28
24 22 20 19 17 15 14 14 16 17 19 21 24 27 29 32 35 36 38 39 39 40 41 40 41 40 39 39 39 38 39 38 37 37 37 36 35 35 33 33 32 31 30
26 24 22 20 18 17 15 14 14 15 16 18 21 24 27 29 32 35 36 38 39 40 40 40 41 41 41 40 40 40 39 38 38 38 38 37 36 36 35 34 33 32 31
26 25 23 22 20 18 16 14 14 14 14 16 18 21 23 27 29 32 33 35 38 39 39 40 41 41 41 42 41 41 40 39 38 38 39 38 37 36 36 35 34 33 33
27 26 24 23 21 19 17 16 14 13 12 13 16 18 21 24 26 28 31 33 35 37 38 39 40 41 41 42 42 41 40 40 40 38 37 38 37 37 36 36 36 35 34
27 26 25 24 23 21 19 17 15 13 11 11 13 16 18 21 24 26 28 31 33 34 36 38 39 40 40 40 41 41 41 41 40 38 37 38 38 38 38 38 37 36 35
27 26 26 25 24 23 20 18 15 13 11 11 12 14 16 18 21 24 26 29 30 32 34 36 37 38 39 41 40 40 41 42 42 41 40 39 39 39 39 38 38 37 37
27 26 26 25 25 24 23 20 16 14 12 11 11 12 14 16 18 20 22 25 28 30 32 34 34 35 37 39 40 40 41 41 42 42 42 41 40 40 39 38 38 38 37
27 27 26 25 25 24 23 21 18 15 13 11 10 10 11 12 14 17 19 22 25 27 30 32 33 34 35 36 37 38 39 40 40 41 42 41 40 39 39 39 38 38 37
26 27 27 26 25 24 23 21 19 16 14 12 10 9 10 10 12 14 17 19 22 24 26 29 31 32 34 35 35 36 37 38 38 39 39 39 39 39 39 39 38 37 36

GEFSMA_500_meanwind_084.txt.gz
Wind_Speed
29 30 32 32 31 31 28 28 28 27 27 28 27 25 23 22 19 18 17 15 14 14 14 14 14 14 14 14 14 14 13 13 12 12 12 11 11 11 10 9 8 7 6
27 28 29 30 31 31 30 29 28 28 28 28 28 27 25 24 22 20 19 18 16 16 15 15 15 15 15 15 15 14 14 14 13 13 12 12 11 11 10 9 8 7 6
24 26 27 29 29 30 31 31 29 29 28 28 28 29 28 27 24 23 22 19 18 17 17 17 17 16 16 16 15 15 15 14 14 14 13 12 12 11 10 9 8 7 6
20 22 25 27 28 29 30 31 31 31 30 29 28 29 30 29 27 25 24 22 20 20 19 19 18 18 17 17 17 16 15 15 15 15 14 13 12 11 11 10 8 7 6
18 20 22 24 26 28 29 30 31 31 31 31 29 29 31 31 30 28 26 25 23 22 22 21 20 19 19 18 18 17 16 16 16 16 15 14 13 12 11 10 9 8 7
15 18 20 22 24 26 28 29 30 31 32 32 31 30 31 31 31 30 28 27 26 25 24 23 22 21 21 20 19 18 17 17 16 16 16 15 15 14 13 11 11 10 8
11 14 17 19 21 23 25 27 29 30 31 31 32 31 31 32 32 31 29 29 28 27 26 25 25 24 23 22 21 20 19 18 18 17 16 16 16 15 14 13 12 11 10
10 10 12 15 18 20 22 25 26 29 30 31 32 32 32 33 32 32 32 31 31 30 29 28 27 26 25 24 23 22 22 21 20 19 18 17 17 16 16 15 14 12 11
10 9 10 12 14 17 19 22 24 26 29 30 31 32 32 32 34 34 35 35 34 32 32 31 30 29 28 27 26 25 24 23 22 21 20 19 18 17 17 16 16 14 13
10 9 9 9 11 14 17 19 22 24 27 29 31 32 33 34 35 35 35 36 35 35 34 33 33 32 31 30 29 28 27 26 25 24 23 21 20 19 18 18 17 16 15
12 11 10 10 11 12 15 17 20 23 25 28 30 32 33 34 36 37 37 37 37 36 36 36 35 34 33 32 31 30 29 28 28 27 25 24 23 21 20 20 19 18 17
14 13 11 10 10 12 14 16 19 22 24 27 30 32 32 33 35 37 37 37 38 39 38 37 37 35 35 34 34 33 32 31 30 29 28 27 25 24 23 22 21 20 19
17 15 13 11 11 11 13 15 17 20 23 26 29 32 33 34 35 36 38 38 38 39 40 39 39 37 36 36 35 35 35 34 32 31 30 29 28 27 26 25 24 23 22
19 17 15 13 12 11 12 14 16 18 21 24 27 30 33 35 36 36 38 39 40 40 41 41 41 40 39 38 37 37 36 36 36 35 33 32 31 30 29 27 26 25 25
19 19 17 15 13 12 11 13 14 16 19 22 24 27 31 34 36 37 38 39 40 41 41 41 41 41 41 41 41 40 39 38 37 37 37 35 34 32 31 31 30 28 27
21 20 19 17 15 13 12 12 13 15 17 20 23 25 28 31 35 37 38 39 40 40 41 42 42 42 42 42 42 42 41 40 39 39 38 37 37 36 34 33 32 31 30
22 22 21 19 17 14 13 13 13 13 15 17 21 24 27 29 31 35 37 38 39 40 39 42 43 42 43 43 43 43 42 41 40 40 40 39 39 38 37 36 35 34 33
22 22 22 21 19 17 15 14 13 13 13 14 17 20 24 27 29 32 35 36 38 39 40 41 42 42 42 42 43 44 44 43 42 41 41 41 40 39 39 38 37 36 34
22 22 22 22 20 19 17 16 15 13 12 12 13 16 19 23 27 29 31 34 36 37 38 40 41 42 42 42 42 43 44 43 42 42 42 41 41 40 40 40 39 37 36
23 23 23 22 21 20 19 17 16 14 13 12 12 13 15 19 23 26 28 31 33 35 37 38 40 41 41 43 42 43 43 43 43 42 42 41 42 41 40 40 39 38 37
23 23 23 22 22 21 20 18 17 15 13 12 11 11 12 15 18 22 25 27 30 32 34 36 38 40 41 41 42 42 43 43 43 43 42 42 42 42 42 41 40 39 38
23 23 23 22 22 21 21 19 18 16 14 11 10 9 10 12 15 18 22 25 27 29 31 33 35 38 39 39 40 42 42 42 42 43 43 42 44 44 43 43 41 40 39
23 23 23 22 21 21 20 19 18 16 14 12 10 9 9 10 12 14 18 22 25 27 29 31 32 35 37 39 39 40 41 42 42 43 44 44 44 44 44 44 43 42 41
23 23 23 22 21 20 20 19 18 16 14 12 11 10 9 9 11 13 16 19 22 25 27 29 30 33 35 36 37 38 39 40 41 42 43 42 42 42 42 43 43 43 42
23 23 23 22 22 20 19 18 18 16 15 14 12 11 10 10 10 12 13 16 19 23 25 27 29 30 33 34 36 37 39 40 40 41 43 43 42 43 43 43 43 42 41
23 22 22 22 22 21 20 19 17 16 16 15 13 12 11 11 11 11 12 14 16 19 22 24 27 28 31 33 35 36 38 39 40 40 40 41 42 43 43 43 44 43 43

GEFSMA_500_meanwind_090.txt.gz
Wind_Speed
25 26 27 29 30 30 30 29 29 27 26 25 24 24 24 24 22 20 19 17 16 15 15 15 15 15 15 15 15 15 14 13 13 13 13 13 12 12 11 10 9 8 7
22 24 24 26 28 29 29 30 30 28 28 26 25 25 25 25 24 22 20 19 17 17 16 16 15 16 16 16 16 16 15 14 14 14 14 14 13 13 12 11 10 8 7
19 20 22 23 26 28 28 28 29 29 29 29 28 26 26 25 25 25 23 21 19 18 18 17 17 18 17 17 17 16 16 15 15 14 14 14 14 13 13 11 10 9 8
15 17 18 20 23 25 26 26 27 28 28 29 29 27 27 27 27 26 26 24 22 20 20 19 18 19 18 18 18 18 17 16 15 15 15 15 14 14 13 12 11 9 8
13 13 15 17 19 22 24 25 26 27 27 28 29 29 27 27 27 27 27 26 24 23 22 21 20 20 19 18 18 18 18 17 16 16 16 15 15 14 13 12 11 10 9
11 11 12 15 17 19 21 23 24 25 26 28 29 29 29 29 28 28 28 27 27 26 24 23 23 22 21 20 20 20 19 19 18 18 17 17 16 15 14 13 12 11 10
11 10 10 11 13 16 19 21 22 23 24 27 29 30 30 30 29 28 28 28 29 28 27 25 25 25 24 23 22 21 21 20 20 19 18 18 17 16 15 14 13 12 11
11 10 9 8 10 12 15 18 20 22 23 25 27 29 29 30 30 29 29 30 30 29 29 28 27 27 26 25 24 23 22 22 21 20 20 19 18 17 17 16 15 14 13
13 11 9 8 7 9 11 14 17 20 22 23 26 28 29 30 31 31 31 31 32 32 32 31 30 29 28 27 27 26 24 23 23 22 21 20 20 19 18 17 17 16 14
13 12 10 8 7 7 9 12 14 17 20 22 24 27 29 30 32 31 33 33 33 32 34 34 33 31 30 29 29 28 27 26 25 24 23 22 21 20 20 19 18 17 16
14 12 11 10 8 7 7 10 12 15 17 20 22 25 27 30 32 32 33 34 34 33 34 35 34 33 33 32 31 30 30 29 28 26 25 24 23 22 21 21 19 19 18
15 13 11 10 9 9 7 8 10 13 15 18 21 23 26 28 31 33 34 34 35 36 36 36 37 35 35 35 35 33 33 32 31 29 28 27 26 24 23 23 22 21 20
17 15 13 12 11 10 9 8 10 12 14 17 19 21 24 27 30 32 34 35 35 36 37 38 39 39 38 37 37 36 35 34 34 32 31 30 29 28 27 26 24 23 22
18 16 15 13 12 11 10 9 9 10 12 15 17 20 23 26 29 31 33 35 36 37 38 40 40 40 39 40 40 38 37 37 36 35 34 33 32 31 30 29 27 26 25
18 17 16 15 14 12 11 10 9 10 12 13 15 18 21 24 27 29 31 34 36 37 38 40 42 42 42 41 42 41 40 39 39 38 36 35 35 34 33 32 31 29 28
19 18 17 16 15 14 12 11 11 11 12 13 15 17 19 21 24 28 30 32 34 37 39 40 42 42 42 42 42 42 42 42 41 40 39 38 37 36 35 35 34 32 31
19 19 18 17 16 15 13 13 12 12 12 12 13 15 17 19 22 25 28 30 33 35 37 39 40 42 43 43 44 43 43 43 42 42 41 40 39 38 38 38 37 36 35
19 19 18 18 17 15 14 14 13 13 12 11 11 12 14 16 18 22 25 27 30 33 35 37 39 40 41 43 44 44 45 44 43 44 44 43 42 41 40 40 40 39 38
20 19 18 18 17 16 15 15 15 14 12 11 10 10 11 13 15 17 21 24 27 29 32 35 36 38 39 40 41 43 44 45 45 44 44 43 43 42 42 42 42 42 41
19 19 19 18 18 17 16 16 15 14 13 11 9 9 10 11 12 14 16 20 23 26 30 33 35 36 36 38 40 40 41 42 43 44 45 44 44 44 43 43 44 44 43
19 19 19 19 18 17 17 16 16 14 13 11 9 9 9 10 10 12 14 16 19 22 26 30 33 34 36 37 38 39 39 41 42 42 43 44 45 45 45 45 45 45 44
19 19 19 19 18 18 17 16 16 15 13 11 10 9 8 9 10 11 13 14 16 19 22 25 29 32 34 36 38 39 39 40 42 42 43 43 43 44 44 45 44 44 45
20 19 19 18 18 18 17 16 16 15 14 12 11 10 9 9 10 11 12 13 15 17 20 22 25 28 31 33 36 37 38 39 40 42 43 43 44 43 44 45 45 44 45
20 19 19 18 18 18 17 16 16 15 14 13 12 11 10 10 10 10 11 13 14 16 17 19 21 24 28 30 33 35 36 37 39 40 42 42 42 42 42 44 45 46 46
20 19 19 18 18 17 17 17 16 15 14 14 13 13 12 11 11 11 11 13 14 15 16 18 20 22 24 27 29 32 34 35 37 38 40 40 41 41 42 43 44 46 46
21 20 19 19 18 18 17 17 16 16 15 14 14 13 13 13 12 12 12 12 13 15 16 17 19 21 23 25 27 29 31 34 35 36 38 40 41 42 41 42 43 44 45

GEFSMA_500_meanwind_096.txt.gz
Wind_Speed
19 20 22 23 24 26 27 28 28 28 28 27 26 26 26 25 24 23 22 21 19 18 18 17 16 18 19 18 18 17 17 17 16 15 15 14 14 14 13 11 10 10 9
17 19 19 21 23 24 26 27 27 27 27 27 26 27 27 26 25 25 24 23 21 20 19 18 18 18 19 20 18 18 18 18 17 16 16 16 15 15 14 12 11 11 10
15 16 18 19 20 22 24 25 26 27 26 25 26 27 27 27 26 26 26 25 23 22 21 19 19 19 20 20 20 19 19 19 18 17 17 17 16 16 15 14 13 12 11
13 13 15 16 17 19 21 23 24 25 26 25 26 27 28 28 28 26 26 26 25 23 22 21 20 20 21 21 21 20 20 20 19 18 17 17 17 17 16 15 14 13 12
11 11 12 13 14 16 18 20 21 23 25 25 25 26 27 28 29 28 27 27 27 25 24 22 21 22 22 22 21 21 21 21 20 19 18 18 18 18 17 16 15 14 13
11 9 9 9 10 12 15 17 19 21 23 25 25 26 26 27 28 28 27 27 28 27 26 23 23 24 23 23 22 22 22 22 21 20 19 19 19 18 18 17 16 15 13
10 8 7 7 7 9 12 14 16 19 21 23 25 26 26 27 27 28 28 28 28 29 28 26 24 25 24 24 23 23 23 23 22 21 20 20 20 19 18 18 17 16 15
10 8 7 7 6 7 8 11 14 16 18 21 23 25 26 27 27 27 28 28 28 29 29 28 27 26 26 25 24 24 25 24 23 22 22 22 21 20 19 19 18 16 15
11 9 8 6 6 6 6 8 11 13 16 18 21 23 25 26 27 28 29 29 29 29 29 29 29 28 27 26 26 26 26 25 25 23 23 23 23 22 21 20 19 18 16
12 11 8 7 5 4 5 7 9 11 13 15 18 20 23 26 27 28 28 29 30 29 30 29 30 30 29 28 27 27 27 27 26 25 24 24 23 23 23 22 21 19 18
13 11 9 7 6 4 4 5 7 9 12 14 16 18 21 24 27 28 29 30 31 31 31 31 31 31 31 31 30 29 29 28 27 27 26 26 25 24 24 23 22 21 20
13 12 10 8 7 5 4 5 6 8 11 13 14 17 19 22 25 27 29 29 30 32 33 32 32 33 33 34 33 32 31 31 30 29 29 27 27 26 25 25 24 23 22
13 13 11 10 8 7 5 5 6 7 10 12 13 15 18 20 23 25 27 27 29 31 33 34 34 34 35 35 35 35 35 33 32 31 31 30 29 28 28 26 25 25 24
14 13 12 11 9 8 7 5 5 6 8 11 13 15 17 19 22 24 26 27 28 30 32 33 35 37 37 37 37 37 37 36 35 34 33 33 32 31 30 29 28 27 26
14 13 12 12 10 9 8 7 6 6 7 9 11 13 15 18 21 23 25 27 28 30 31 33 34 37 38 38 39 40 39 38 38 37 37 36 35 34 33 32 31 30 29
14 13 13 12 11 10 9 8 7 7 7 8 10 13 15 17 19 21 24 26 28 29 31 33 35 36 37 39 39 40 40 40 40 40 39 39 38 37 36 36 34 34 33
14 14 13 12 12 11 10 9 8 8 8 9 9 11 14 16 17 19 21 24 26 28 30 32 34 35 37 38 39 40 41 42 42 41 41 41 40 40 39 38 37 37 36
14 14 14 13 12 12 11 10 9 9 9 10 10 11 12 14 16 17 19 22 24 26 27 30 32 34 36 37 39 40 41 42 42 42 42 42 43 42 42 41 40 39 38
15 15 14 14 13 12 12 11 10 9 9 9 10 10 10 12 13 15 17 19 21 23 25 28 30 32 34 35 37 39 40 41 42 42 42 42 43 44 44 42 42 42 41
16 15 15 14 13 13 12 12 11 11 10 10 9 9 9 10 11 13 15 16 18 19 21 24 27 30 32 33 34 36 38 40 41 42 43 43 43 44 44 44 44 43 43
15 15 15 15 14 14 13 12 12 11 11 10 9 8 8 8 9 11 13 14 15 16 18 20 22 25 29 31 32 33 35 36 38 39 40 42 43 44 44 44 44 44 44
15 15 15 15 15 14 14 13 12 12 11 10 10 9 8 8 9 10 11 13 14 16 17 18 20 22 25 28 30 31 33 34 35 37 39 40 42 43 45 45 45 45 45
16 15 16 16 15 14 14 14 13 12 11 11 10 10 8 9 10 10 11 13 15 16 17 18 20 21 23 26 29 31 32 33 34 36 37 38 40 41 43 45 45 46 46
16 16 16 16 16 15 15 14 14 13 12 11 11 10 10 9 9 10 11 12 14 15 17 17 18 20 22 24 26 29 31 33 35 37 38 38 39 40 41 43 45 46 46
17 17 17 17 16 16 15 15 15 14 14 13 12 12 11 11 11 11 12 12 14 15 17 17 18 18 20 22 25 27 29 31 32 34 37 38 39 40 41 42 44 45 46
18 18 18 17 17 16 16 16 16 15 15 14 14 13 13 12 12 13 13 13 14 15 17 17 18 19 19 21 23 25 27 29 31 33 36 38 39 40 40 41 43 44 46

GEFSMA_500_meanwind_102.txt.gz
Wind_Speed
18 18 18 17 17 18 19 21 22 23 23 23 24 24 24 25 26 25 25 24 23 21 20 19 18 17 17 17 17 17 16 15 14 14 13 12 11 11 10 10 9 8 7
18 17 17 16 16 17 17 19 20 22 22 22 23 24 24 25 25 25 25 25 24 22 22 20 19 19 18 18 18 18 17 17 16 15 14 13 12 12 11 11 10 9 8
18 17 16 15 15 16 16 16 18 19 20 21 22 23 24 25 25 26 25 25 25 24 23 21 20 19 19 19 19 19 18 18 18 16 16 14 13 13 12 12 11 9 9
18 17 16 15 14 14 14 14 16 18 19 19 21 23 23 25 25 27 26 25 25 25 23 22 21 21 20 20 20 20 19 18 19 18 17 16 15 14 13 13 12 10 10
17 16 15 13 12 11 12 13 14 16 18 18 20 21 22 24 25 27 27 26 25 25 24 23 22 21 21 20 20 21 19 19 19 19 18 17 16 16 15 14 13 12 11
16 15 14 12 11 10 10 11 11 13 16 17 18 20 21 23 24 26 27 27 26 25 25 24 23 22 22 22 21 21 21 20 20 20 19 18 17 17 17 16 15 14 13
16 15 13 11 10 9 9 9 9 11 13 15 17 18 20 22 22 24 26 27 26 26 25 25 24 24 23 23 23 22 22 21 20 21 20 19 19 18 18 18 17 16 14
15 15 14 11 10 8 7 7 7 9 11 12 15 17 19 20 22 23 25 27 26 26 25 25 26 25 24 23 24 24 24 22 22 21 22 21 20 20 19 19 18 17 16
15 14 13 12 9 7 6 6 5 7 9 11 13 14 17 19 21 23 24 26 27 27 26 25 26 26 25 25 25 25 25 24 23 23 22 23 22 21 21 20 20 18 17
15 14 13 12 9 7 7 6 5 5 7 9 12 13 15 17 19 22 23 25 26 26 26 25 26 26 25 26 26 26 25 26 25 24 23 23 23 23 23 22 21 20 19
15 14 13 11 9 7 6 5 5 5 6 8 10 12 14 16 17 20 22 24 25 25 25 25 26 27 27 27 26 26 26 26 26 27 25 25 25 25 24 24 23 22 20
15 14 13 11 9 8 6 5 5 5 5 7 9 11 13 15 17 18 20 22 23 24 25 26 26 26 28 29 28 28 28 28 27 27 28 27 27 26 26 25 25 24 23
14 14 13 11 10 9 7 6 5 5 5 5 7 9 11 13 16 17 19 21 22 23 24 26 26 27 28 29 29 29 29 30 29 29 28 29 29 28 28 27 26 26 25
14 14 13 12 11 10 9 7 6 5 5 5 6 7 9 11 14 16 18 20 22 23 24 25 26 27 28 28 30 31 30 30 31 31 31 31 30 30 30 29 28 28 27
15 14 13 13 12 11 10 8 7 6 6 6 6 7 8 10 12 14 17 18 20 22 23 24 25 27 28 28 30 31 32 32 31 32 33 33 33 32 32 32 31 30 30
15 14 14 14 13 11 10 9 8 7 7 7 7 8 9 10 11 13 16 17 19 20 21 23 25 27 28 29 30 32 33 33 33 33 33 34 35 35 34 34 34 33 33
15 14 14 14 14 12 11 10 9 9 8 8 8 8 9 10 11 13 15 17 18 19 21 22 24 26 27 28 30 32 33 34 35 35 36 35 36 36 36 36 36 36 35
15 14 14 14 14 13 12 11 10 10 9 9 8 8 9 10 11 13 15 16 18 19 20 21 23 24 25 27 29 31 33 34 35 35 36 36 37 38 38 38 38 38 37
15 14 14 14 14 13 13 12 11 11 10 10 9 10 10 11 11 12 15 17 18 19 19 20 21 23 24 25 26 28 31 33 34 35 36 37 37 38 39 39 39 39 39
15 15 15 14 14 14 13 13 12 12 11 10 10 10 10 11 11 11 13 15 17 18 18 19 20 21 22 23 24 26 28 30 32 33 34 35 36 38 39 40 40 40 40
16 15 15 15 15 14 14 14 13 13 12 11 11 11 11 10 11 11 12 13 15 16 17 18 19 21 22 23 24 25 26 27 30 32 33 34 35 37 38 40 40 40 41
16 16 16 15 15 15 15 15 14 14 13 12 12 11 11 11 11 11 11 12 13 14 16 17 18 20 22 22 23 24 25 27 27 29 31 33 35 36 37 38 39 40 40
16 16 16 16 16 16 15 15 15 15 14 14 12 12 11 11 11 11 11 12 12 14 15 16 17 18 19 20 22 23 24 25 26 28 30 30 33 34 35 36 38 38 39
16 16 16 16 16 16 16 16 16 15 15 14 13 12 12 11 11 11 11 11 12 12 13 15 16 17 17 18 20 21 22 24 25 27 28 30 31 32 34 35 36 37 39
16 16 16 16 16 16 16 16 16 16 16 15 14 13 13 12 12 11 12 12 13 13 14 15 16 18 18 18 19 21 22 23 24 25 27 29 31 32 33 34 36 37 38
17 17 16 16 16 16 16 16 17 17 16 16 15 14 14 13 13 13 13 13 14 14 14 15 16 17 18 19 20 21 22 23 24 25 27 28 29 31 32 33 34 35 37

GEFSMA_500_meanwind_108.txt.gz
Wind_Speed
16 16 15 15 15 15 16 16 16 18 20 21 22 24 24 25 25 26 26 26 24 23 22 20 19 18 18 18 17 16 16 15 14 13 13 12 12 12 11 10 10 10 9
16 16 15 14 13 13 14 15 16 16 18 19 21 23 24 24 25 26 27 26 25 24 23 22 20 19 19 19 19 18 17 16 15 15 14 13 13 13 12 12 11 10 10
16 16 15 14 13 13 12 13 15 16 17 18 20 22 24 25 25 26 27 27 26 25 24 23 22 21 20 20 20 19 19 18 16 16 16 15 14 13 13 13 12 11 10
17 16 15 14 13 11 11 11 13 14 16 18 19 20 22 25 25 26 27 28 27 26 24 24 23 22 22 21 21 21 20 19 18 17 18 17 16 15 14 14 13 12 12
16 15 14 13 12 11 10 11 12 13 15 17 18 19 20 24 25 26 27 27 27 27 26 25 25 24 23 23 22 21 21 20 20 19 19 18 17 16 16 16 15 14 13
16 15 14 13 12 11 10 10 10 11 13 15 17 19 19 21 24 25 26 26 26 26 26 27 26 25 24 24 23 22 22 22 21 20 19 19 19 18 18 17 16 15 14
16 15 14 13 11 10 9 8 8 10 11 13 15 17 19 19 22 23 25 27 27 27 27 28 27 26 25 25 24 23 23 23 22 21 20 19 19 20 19 18 18 17 16
16 15 14 12 11 9 8 6 6 8 10 11 13 15 17 18 21 22 24 25 27 27 27 27 27 26 26 25 25 24 24 23 23 22 22 21 20 20 20 20 19 18 18
15 14 13 12 10 8 7 6 5 6 8 10 11 13 15 17 19 21 23 25 26 27 27 26 26 26 26 26 25 25 24 24 24 24 23 22 21 21 21 21 20 20 19
15 14 12 11 10 8 6 5 4 4 7 9 10 11 12 15 18 20 22 24 26 27 27 27 26 26 27 26 26 25 25 25 24 24 24 24 23 23 22 22 22 22 21
14 14 12 11 10 8 6 5 3 3 4 6 9 10 12 13 16 18 20 22 25 27 27 28 28 26 26 27 27 27 26 26 25 25 25 25 25 24 24 23 23 22 22
14 13 13 11 10 9 7 5 3 3 3 5 7 9 11 12 14 16 18 20 22 24 26 27 27 27 27 27 28 27 27 27 27 26 26 26 26 26 25 25 24 24 24
14 13 12 11 10 9 8 6 4 3 3 4 6 8 10 11 13 14 17 19 21 23 24 25 27 27 27 28 28 28 27 27 28 28 28 28 28 27 27 27 26 25 26
14 13 12 11 11 10 8 7 6 4 4 4 5 6 8 10 12 13 16 18 20 22 23 24 26 26 27 28 28 29 29 29 29 29 30 30 30 29 29 29 28 28 28
14 13 12 11 10 10 9 8 7 5 2 2 4 5 7 8 11 12 14 16 19 21 22 23 25 26 26 27 28 29 29 31 30 30 31 31 31 31 31 31 31 30 30
13 12 12 10 10 10 10 9 8 6 4 3 3 4 6 7 9 11 13 15 17 19 21 22 24 25 26 28 28 29 30 30 31 31 31 32 33 33 32 32 32 32 32
13 12 11 11 11 10 10 9 8 7 5 4 4 4 5 7 8 11 13 14 16 18 20 21 22 24 26 26 27 28 29 30 30 31 32 32 33 33 34 34 34 34 34
12 12 11 11 11 10 10 9 8 7 6 5 5 5 5 6 8 10 12 14 16 17 19 20 21 23 25 26 27 28 28 28 30 30 32 32 33 34 35 36 37 37 36
11 11 11 11 11 10 9 9 8 7 7 6 6 6 6 6 8 9 11 13 15 17 18 20 20 21 23 24 26 27 29 29 29 30 31 32 34 35 36 37 38 38 38
11 11 11 11 11 10 9 9 9 8 7 7 7 7 7 7 8 9 10 12 14 16 17 19 20 21 22 23 24 25 27 29 29 29 30 31 32 34 36 37 38 39 39
11 11 11 11 11 10 10 9 9 9 8 8 8 8 8 7 8 8 10 12 13 15 16 17 19 20 21 22 23 23 24 25 26 27 29 30 31 33 35 36 38 39 39
11 11 11 11 11 10 10 10 10 9 9 9 9 8 8 8 8 8 9 10 12 13 14 16 17 18 19 20 22 23 24 24 26 26 27 28 30 32 34 36 37 38 39
12 12 11 11 11 11 11 10 10 10 10 10 10 10 9 9 8 9 9 9 11 12 13 14 15 16 18 19 20 22 23 24 25 26 28 28 30 31 32 34 36 37 38
13 13 12 12 12 11 11 11 11 11 11 11 11 11 10 10 10 10 10 10 11 11 13 14 15 16 16 17 18 20 21 22 24 25 27 28 29 30 32 33 35 36 38
15 14 14 13 13 12 12 12 12 11 11 11 11 11 11 11 11 11 11 11 12 12 13 15 15 15 16 17 18 20 21 22 24 25 26 27 28 29 31 33 34 36 37
17 16 15 15 14 14 13 13 13 12 12 12 12 12 11 11 12 11 12 12 12 13 14 15 16 17 17 18 19 20 21 22 23 24 25 26 27 28 30 32 34 35 35